Time,TemperatureF,DewpointF,PressureIn,WindDirection,WindDirectionDegrees,WindSpeedMPH,WindSpeedGustMPH,Humidity,HourlyPrecipIn,Conditions,Clouds,dailyrainin,SoftwareType,DateUTC
2013-04-28 17:22:00,55.0,41.0,30.11,SW,226,14.0,22.0,60,0.00,,,0.07,,2013-04-29 00:22:00,
2013-04-28 17:32:00,55.0,41.0,30.11,SW,226,14.0,22.0,60,0.00,,,0.07,,2013-04-29 00:32:00,
2013-04-28 17:42:00,55.0,41.0,30.11,SW,226,14.0,22.0,60,0.00,,,0.07,,2013-04-29 00:42:00,
2013-04-28 17:52:00,54.0,41.0,30.11,SSW,204,13.0,23.0,62,0.00,,,0.07,,2013-04-29 00:52:00,
2013-04-28 18:01:00,54.0,41.0,30.11,SSW,204,13.0,23.0,62,0.00,,,0.07,,2013-04-29 01:01:00,
2013-04-28 18:12:00,53.0,41.0,30.09,SSW,194,9.0,17.0,63,0.00,,,0.07,,2013-04-29 01:12:00,
2013-04-28 18:21:00,53.0,41.0,30.09,SSW,194,9.0,17.0,63,0.00,,,0.07,,2013-04-29 01:21:00,
2013-04-28 18:32:00,53.0,41.0,30.09,SSW,194,9.0,17.0,63,0.00,,,0.07,,2013-04-29 01:32:00,
2013-04-28 18:42:00,53.0,41.0,30.09,SSW,194,9.0,17.0,63,0.00,,,0.07,,2013-04-29 01:42:00,
2013-04-28 18:52:00,54.0,41.0,30.07,SSW,208,9.0,17.0,62,0.00,,,0.07,,2013-04-29 01:52:00,
2013-04-28 19:01:00,54.0,41.0,30.07,SSW,208,9.0,17.0,62,0.00,,,0.07,,2013-04-29 02:01:00,
2013-04-28 19:11:00,54.0,41.0,30.07,SSW,208,9.0,17.0,62,0.00,,,0.07,,2013-04-29 02:11:00,
2013-04-28 19:21:00,53.0,42.0,30.07,West,273,10.0,22.0,66,0.00,,,0.07,,2013-04-29 02:21:00,
2013-04-28 19:31:00,53.0,42.0,30.07,West,273,10.0,22.0,66,0.00,,,0.07,,2013-04-29 02:31:00,
2013-04-28 19:42:00,53.0,42.0,30.07,West,273,10.0,22.0,66,0.00,,,0.07,,2013-04-29 02:42:00,
2013-04-28 19:52:00,52.0,42.0,30.05,WSW,246,15.0,24.0,68,0.00,,,0.07,,2013-04-29 02:52:00,
2013-04-28 20:01:00,52.0,42.0,30.05,WSW,246,15.0,24.0,68,0.00,,,0.07,,2013-04-29 03:01:00,
2013-04-28 20:12:00,52.0,42.0,30.05,WSW,246,15.0,24.0,68,0.00,,,0.07,,2013-04-29 03:12:00,
2013-04-28 20:21:00,51.0,43.0,30.04,West,278,12.0,19.0,73,0.00,,,0.07,,2013-04-29 03:21:00,
2013-04-28 20:32:00,51.0,43.0,30.04,West,278,12.0,19.0,73,0.00,,,0.07,,2013-04-29 03:32:00,
2013-04-28 20:42:00,51.0,43.0,30.04,West,278,12.0,19.0,73,0.00,,,0.07,,2013-04-29 03:42:00,
2013-04-28 20:53:00,50.0,44.0,30.04,WSW,252,12.0,16.0,79,0.00,,,0.07,,2013-04-29 03:53:00,
2013-04-28 21:02:00,50.0,44.0,30.04,WSW,252,12.0,16.0,79,0.00,,,0.07,,2013-04-29 04:02:00,
2013-04-28 21:12:00,50.0,44.0,30.04,WSW,252,12.0,16.0,79,0.00,,,0.07,,2013-04-29 04:12:00,
2013-04-28 21:22:00,49.0,45.0,30.03,WSW,257,10.0,16.0,85,0.00,,,0.07,,2013-04-29 04:22:00,
2013-04-28 21:32:00,49.0,45.0,30.03,WSW,257,10.0,16.0,85,0.00,,,0.07,,2013-04-29 04:32:00,
2013-04-28 21:43:00,49.0,45.0,30.03,WSW,257,10.0,16.0,85,0.00,,,0.07,,2013-04-29 04:43:00,
2013-04-28 21:52:00,48.0,45.0,30.02,SSW,200,6.0,15.0,88,0.00,,,0.07,,2013-04-29 04:52:00,
2013-04-28 22:01:00,48.0,45.0,30.02,SSW,200,6.0,15.0,88,0.00,,,0.07,,2013-04-29 05:01:00,
2013-04-28 22:12:00,48.0,45.0,30.02,SSW,200,6.0,15.0,88,0.00,,,0.07,,2013-04-29 05:12:00,
2013-04-28 22:22:00,48.0,45.0,30.00,SSE,155,9.0,18.0,89,0.00,,,0.07,,2013-04-29 05:22:00,
2013-04-28 22:32:00,48.0,45.0,30.00,SSE,155,9.0,18.0,89,0.00,,,0.07,,2013-04-29 05:32:00,
2013-04-28 22:42:00,48.0,45.0,30.00,SSE,155,9.0,18.0,89,0.00,,,0.07,,2013-04-29 05:42:00,
2013-04-28 22:52:00,47.0,45.0,29.98,SSW,208,8.0,17.0,92,0.00,,,0.07,,2013-04-29 05:52:00,
2013-04-28 23:02:00,47.0,45.0,29.98,SSW,208,8.0,17.0,92,0.00,,,0.07,,2013-04-29 06:02:00,
2013-04-28 23:11:00,47.0,45.0,29.98,SSW,208,8.0,17.0,92,0.00,,,0.07,,2013-04-29 06:11:00,
2013-04-28 23:21:00,47.0,45.0,29.96,SE,146,7.0,17.0,92,0.00,,,0.07,,2013-04-29 06:21:00,
2013-04-28 23:32:00,47.0,45.0,29.96,SE,146,7.0,17.0,92,0.00,,,0.07,,2013-04-29 06:32:00,
2013-04-28 23:42:00,47.0,45.0,29.96,SE,146,7.0,17.0,92,0.00,,,0.07,,2013-04-29 06:42:00,
2013-04-28 23:52:00,47.0,45.0,29.96,SW,233,9.0,21.0,92,0.00,,,0.07,,2013-04-29 06:52:00,